Regional Weather Roundup
Issued by NWS

Home | Current Version | Previous Version | Text Only | Print | Product List | Glossary On
Versions: 1 2 3 4 5 6 7 8 9 10 11 12 13 14 15 16 17 18 19 20 21 22 23 24 25 26 27 28 29 30 31 32 33 34 35 36 37 38 39 40 41 42 43 44 45 46 47 48 49 50
000
ASUS43 KDMX 052207
RWRIA

WEATHER ROUNDUP FOR IOWA
NATIONAL WEATHER SERVICE DES MOINES IA
500 PM CDT SUN JUL 05 2015

NOTE: "FAIR" INDICATES FEW OR NO CLOUDS BELOW 12,000 FEET WITH NO
SIGNIFICANT WEATHER AND/OR OBSTRUCTIONS TO VISIBILITY.

* - THESE STATIONS ARE NOT NWS STATIONS...THUS NOT UNDER NWS
QUALITY CONTROL.  THEY ALSO DO NOT REPORT WEATHER SUCH
AS PRECIPITATION OR FOG.

IAZ001>003-012>014-020>022-031>034-043>046-052300-
   NORTHWEST IOWA

CITY           SKY/WX    TMP DP  RH WIND       PRES   REMARKS
CARROLL *      SUNNY     86  72  62 SE18G25   29.87F HX  92
CHEROKEE *     MOSUNNY   86  73  66 S15G23    29.84S HX  93
DENISON *      SUNNY     84  72  65 S18G26    29.83F HX  89
LE MARS *      SUNNY     88  73  62 SE14G22   29.82S HX  96
ORANGE CITY *  SUNNY     86  72  62 S14G23    29.83F HX  92
SHELDON *      SUNNY     86  73  66 S18G25    29.82F HX  93
SIOUX CITY     SUNNY     88  72  58 S15G21    29.80S HX  94
SPENCER        SUNNY     90  69  50 S16       29.86S HX  94
STORM LAKE *   SUNNY     84  72  65 SE16G25   29.88R HX  89
$$

IAZ055>058-069>071-079>083-090>094-052300-
   SOUTHWEST IOWA

CITY           SKY/WX    TMP DP  RH WIND       PRES   REMARKS
ATLANTIC *     SUNNY     86  70  58 S14G21    29.87F HX  90
AUDUBON *      SUNNY     86  72  62 SE15G21   29.89F HX  92
CLARINDA *     SUNNY     86  86 100 S10G17    29.88S HX 112
COUNCIL BLFS * SUNNY     88  75  66 S15G24    29.84F HX  97
CRESTON *      SUNNY     86  72  62 S16       29.91F HX  92
HARLAN  *      SUNNY     86  75  70 SE15G24   29.89S HX  95
LAMONI         PTSUNNY   85  71  63 SE10      29.93S HX  90
RED OAK *      SUNNY     86  73  66 SE10      29.86F HX  93
SHENANDOAH *   SUNNY     90  75  62 SE17G23   29.85F HX 100
$$

IAZ047>049-059>061-072>074-084-052300-
   CENTRAL IOWA

CITY           SKY/WX    TMP DP  RH WIND       PRES   REMARKS
AMES           PTSUNNY   83  70  64 SE14      29.92S HX  87
ANKENY *       SUNNY     84  72  65 S12G18    29.91F HX  89
CHARITON *     SUNNY     82  68  61 SE10      29.94F HX  85
DES MOINES     PTSUNNY   86  69  56 SE15      29.91F HX  90
GRINNELL*      PTSUNNY   84  68  58 S14       29.95F HX  87
KNOXVILLE *    SUNNY     82  68  61 S13       29.93F HX  85
MARSHALLTOWN   PTSUNNY   82  69  64 SE13      29.93F HX  85
PELLA *        PTSUNNY   86  72  62 S9        29.95F HX  92
PERRY *          N/A     86  70  58 SE16      29.89F HX  90
$$

IAZ004>006-015-016-023>025-035-036-052300-
   NORTH CENTRAL IOWA

CITY           SKY/WX    TMP DP  RH WIND       PRES   REMARKS
ALGONA *       SUNNY     86  72  62 S17G24    29.89S HX  92
CLARION *      SUNNY     84  68  58 S20       29.91S HX  87
ESTHERVILLE    MOSUNNY   85  71  63 S20       29.87S HX  90
FORT DODGE *   MOSUNNY   86  70  58 S12G24    29.90F HX  90
MASON CITY     PTSUNNY   83  69  62 S17       29.93S HX  86
FOREST CITY *  SUNNY     81  68  65 S17       29.91S HX  83
IOWA FALLS *     N/A     82  64  54 S17       29.94S HX  84
$$

IAZ007>011-017>019-026>030-037>042-050>054-066-052300-
   NORTHEAST IOWA

CITY           SKY/WX    TMP DP  RH WIND       PRES   REMARKS
CEDAR RAPIDS   PTSUNNY   83  69  62 S14       29.97F HX  86
CHARLES CITY * SUNNY     81  70  69 SE12G18   29.95F HX  84
CLINTON *      MOSUNNY   81  66  61 S12       30.04S HX  83
DECORAH *        N/A    N/A N/A N/A MISG        N/A
DUBUQUE        PTSUNNY   78  65  63 S10       30.01S HX  80
MONTICELLO *   SUNNY     81  68  65 S10G17    29.99F HX  83
OELWEIN *      SUNNY     82  68  61 S14       29.98R HX  85
WATERLOO       PTSUNNY   82  66  58 S14       29.94S HX  84
$$

IAZ064-065-067-068-078-052300-
   EAST CENTRAL IOWA

CITY           SKY/WX    TMP DP  RH WIND       PRES   REMARKS
DAVENPORT      MOSUNNY   81  66  60 S10       30.00F HX  83
IOWA CITY      PTSUNNY   84  70  62 SE10      29.99S HX  88
MT. PLEASANT * PTSUNNY   86  63  45 SE10      29.98F HX  87
MUSCATINE *    SUNNY     84  68  58 SE12      29.98F HX  87
QUAD CITIES    MOSUNNY   83  66  56 S8        30.00S HX  85
$$

IAZ062-063-075>077-085>089-095>099-052300-
   SOUTHEAST IOWA

CITY           SKY/WX    TMP DP  RH WIND       PRES   REMARKS
BURLINGTON     PTSUNNY   83  71  67 S7        29.99F HX  87
FAIRFIELD *    SUNNY     84  68  58 S12       29.97F HX  87
FORT MADISON * SUNNY     84  70  61 S7        30.00F HX  88
KEOKUK *       SUNNY     84  70  61 S7        29.98S HX  88
OSKALOOSA *      N/A     82  68  61 S8        29.96F HX  85
CENTERVILLE *  SUNNY     82  68  61 SE12      29.98S HX  85
OTTUMWA        PTSUNNY   84  69  60 S13       29.94F HX  88
WASHINGTON *   MOSUNNY   84  72  65 S8        29.99F HX  89
$$

ABBREVIATIONS USED IN REMARKS
   TC - TEMPERATURES IN CELSIUS
  WCI - WIND CHILL INDEX
   HX - HEAT INDEX
  VSB - VISIBILITY
$$




USA.gov is the U.S. government's official web portal to all federal, state and local government web resources and services.